BERGEN / FLESLAND current weather conditions

sailwx.info

Wind from 220 at 10 knots

Air temperature 7.0° C
Visibility: greater than 5.4 NM
Dewpoint 3.0° C
Present weather: Showers in the vicinity.

Last reported at 2015-Mar-29 12:50 UTC.
Time now 2015-Mar-29 13:43 UTC

Location: N 60°17' E 005°14'.
View on Google Maps.

See reports from other nearby stations

  
Tides and Currents Weather Stations Pressure Air Temp Water Temp Dewpoint Dewpoint Depression Visibility Wind Speed Wind Dir Waves Ship Positions
date/time (UTC)wind fromknots sea level pressurealtimeterstation pressurevisibilityair tempwater tempwave heightnotes
2015-Mar-29 12:50 220 10 5.4 7.0 Showers in the vicinity.
2015-Mar-29 12:20 240 9 5.4 6.0 Showers in the vicinity.
2015-Mar-29 11:50 230 9 5.4 7.0 Showers in the vicinity.
2015-Mar-29 11:20 220 9 5.4 7.0 Showers in the vicinity.
2015-Mar-29 10:50 230 8 5.4 7.0 Showers in the vicinity.
2015-Mar-29 10:20 230 8 5.4 7.0 Showers in the vicinity.
2015-Mar-29 09:50 230 8 5.4 6.0 Showers in the vicinity.
2015-Mar-29 09:20 210 8 5.4 6.0 Showers in the vicinity.
2015-Mar-29 08:50 180 6 5.4 6.0 Showers in the vicinity.
2015-Mar-29 08:20 160 6 5.4 6.0
2015-Mar-29 07:50 140 4 5.4 5.0 Showers in the vicinity.
2015-Mar-29 07:20 150 4 5.4 5.0
2015-Mar-29 06:50 180 6 5.4 5.0
2015-Mar-29 06:20 170 5 5.4 4.0
2015-Mar-29 05:50 210 6 5.4 4.0 Showers in the vicinity.
2015-Mar-29 05:20 140 5 5.4 4.0 Showers in the vicinity.
2015-Mar-29 04:50 170 8 5.4 5.0 Light rain showers.
2015-Mar-29 04:20 190 8 5.4 5.0 Light rain showers.
2015-Mar-29 03:50 170 8 5.4 5.0 Light rain.
2015-Mar-29 02:50 220 6 5.4 5.0
2015-Mar-29 01:50 200 10 5.4 5.0 Light drizzle.
2015-Mar-29 00:50 180 13 2.4 5.0 Light rain drizzle.
2015-Mar-28 23:50 160 23 4.9 5.0 Light rain.
2015-Mar-28 22:50 150 27 gusting 40 5.4 6.0 Light rain.
2015-Mar-28 22:20 150 25 gusting 40 5.4 6.0 Light rain.
2015-Mar-28 21:50 150 25 gusting 41 5.4 6.0 Light rain.
2015-Mar-28 21:20 150 23 gusting 37 5.4 6.0 Light rain.
2015-Mar-28 20:50 150 26 gusting 37 5.4 6.0 Light rain.
2015-Mar-28 20:20 140 25 gusting 38 5.4 5.0 Light rain.
2015-Mar-28 19:50 140 22 gusting 36 5.4 5.0 Light rain.
2015-Mar-28 19:20 150 24 gusting 34 5.4 5.0 Light rain.
2015-Mar-28 18:50 150 22 gusting 33 5.4 5.0 Light rain.
2015-Mar-28 18:20 150 24 gusting 36 5.4 4.0 Light rain.
2015-Mar-28 17:50 140 20 gusting 31 5.4 3.0 Light rain.
2015-Mar-28 17:20 150 20 gusting 34 4.9 3.0 Light rain.
2015-Mar-28 16:50 140 23 4.9 4.0 Light rain.
2015-Mar-28 16:20 150 27 gusting 39 4.9 4.0 Light rain.
2015-Mar-28 15:50 150 25 5.4 5.0 Light drizzle.
2015-Mar-28 15:20 150 27 gusting 39 5.4 5.0 Light drizzle.
2015-Mar-28 14:50 150 23 gusting 34 5.4 5.0 Light rain.
2015-Mar-28 14:20 140 20 gusting 34 5.4 6.0
2015-Mar-28 13:50 150 20 gusting 30 5.4 6.0
2015-Mar-28 13:20 150 22 5.4 6.0
2015-Mar-28 12:50 150 22 gusting 32 5.4 6.0
2015-Mar-28 12:20 150 23 5.4 6.0
2015-Mar-28 11:50 150 23 5.4 6.0
2015-Mar-28 11:20 150 20 5.4 6.0
2015-Mar-28 10:50 150 19 5.4 6.0
2015-Mar-28 10:20 150 17 gusting 27 5.4 6.0
2015-Mar-28 09:50 150 16 5.4 6.0
2015-Mar-28 09:20 150 16 5.4 6.0
2015-Mar-28 08:50 150 16 5.4 5.0
2015-Mar-28 08:20 140 13 5.4 5.0
2015-Mar-28 07:50 150 13 5.4 5.0
2015-Mar-28 07:20 140 14 5.4 5.0
2015-Mar-28 06:50 140 12 5.4 4.0
2015-Mar-28 06:20 140 12 5.4 4.0
2015-Mar-28 05:50 150 11 5.4 4.0 Showers in the vicinity.
2015-Mar-28 05:20 140 11 5.4 4.0
2015-Mar-28 04:50 140 10 5.4 4.0
2015-Mar-28 04:20 140 10 5.4 4.0 Light rain.
2015-Mar-28 03:20 150 8 5.4 4.0
2015-Mar-28 02:20 140 8 5.4 4.0
2015-Mar-28 00:50 150 9 5.4 4.0
2015-Mar-27 23:50 150 8 5.4 4.0
2015-Mar-27 23:20 160 10 5.4 4.0
2015-Mar-27 22:50 180 10 5.4 4.0
2015-Mar-27 22:20 170 9 5.4 4.0
2015-Mar-27 21:50 140 5 5.4 4.0
2015-Mar-27 21:20 150 5 5.4 4.0
2015-Mar-27 20:50 160 7 5.4 4.0
2015-Mar-27 20:20 180 5 5.4 4.0
2015-Mar-27 19:50 180 10 5.4 4.0 Light rain showers.
2015-Mar-27 19:20 170 11 5.4 4.0 Light rain showers.
2015-Mar-27 18:50 170 9 5.4 4.0 Light rain showers.
2015-Mar-27 18:20 200 12 5.4 4.0 Light rain showers.
2015-Mar-27 17:50 170 11 5.4 5.0 Showers in the vicinity.
2015-Mar-27 17:20 180 12 5.4 5.0 Showers in the vicinity.
2015-Mar-27 16:50 160 12 5.4 5.0 Showers in the vicinity.
2015-Mar-27 16:20 180 11 5.4 5.0 Showers in the vicinity.
2015-Mar-27 15:50 170 9 5.4 5.0
2015-Mar-27 15:20 180 9 5.4 5.0 Light rain showers.
2015-Mar-27 14:50 200 8 5.4 5.0 Light rain showers.
2015-Mar-27 14:20 210 8 5.4 6.0
2015-Mar-27 13:50 190 8 5.4 6.0
2015-Mar-27 13:20 210 8 5.4 6.0